+ Show sort options +

VAC BANNED LIST
SteamID Steam Community ID Nickname Last time checked (CET) Checked #
STEAM_0:1:2330 76561197960270389 y = ƒ(DJ Kinetic) | X3 2017-02-21 20:51:47 7 more...
STEAM_0:0:2335 76561197960270398 TARDBARNNNNNNNNN 2017-02-21 20:51:47 15 more...
STEAM_0:1:2337 76561197960270403 virusconnex 2017-02-21 20:51:47 6 more...
STEAM_0:1:2344 76561197960270417 pettanko 2017-03-13 09:14:42 73 more...
STEAM_0:0:2348 76561197960270424 cory 2017-02-21 20:51:47 10 more...
STEAM_0:0:2356 76561197960270440 icky0ne 2017-02-21 20:51:48 9 more...
STEAM_0:0:2365 76561197960270458 Pending 2017-02-21 20:51:48 26 more...
STEAM_0:1:2367 76561197960270463 limrichie83 2017-02-21 20:51:48 9 more...
STEAM_0:1:2371 76561197960270471 Anthonizzle 2017-02-21 20:51:48 5 more...
STEAM_0:0:2387 76561197960270502 sold 2017-02-21 20:51:48 20 more...
STEAM_0:0:2408 76561197960270544 AbJect 2017-02-21 20:51:49 43 more...
STEAM_0:0:2411 76561197960270550 Bryce 2017-02-21 20:51:49 9 more...
STEAM_0:0:2412 76561197960270552 HaVoC 2017-02-21 20:51:49 10 more...
STEAM_0:1:2413 76561197960270555 kr4yon 2017-02-21 20:51:49 6 more...
STEAM_0:0:2419 76561197960270566 eLykze 2017-02-21 20:51:49 13 more...
STEAM_0:0:2420 76561197960270568 bilko 2017-02-21 20:51:49 27 more...
STEAM_0:1:2429 76561197960270587 towel 2017-02-21 20:51:49 7 more...
STEAM_0:1:2441 76561197960270611 dvso4 2017-02-21 20:51:49 5 more...
STEAM_0:1:2450 76561197960270629 Kenny 2017-02-21 20:51:49 11 more...
STEAM_0:0:2454 76561197960270636 mrfrye.neg 2017-02-21 20:51:50 10 more...
STEAM_0:0:2460 76561197960270648 hilo 2017-02-21 20:51:50 11 more...
STEAM_0:0:2468 76561197960270664 baLListic #ai 2017-02-21 20:51:50 18 more...
STEAM_0:0:2478 76561197960270684 yee 2017-02-21 20:51:50 25 more...
STEAM_0:0:2482 76561197960270692 shep 2017-02-21 20:51:50 10 more...
STEAM_0:1:2482 76561197960270693 Nerd Rage 2017-02-21 20:51:50 8 more...
STEAM_0:1:2484 76561197960270697 omgwtfbbq 2017-02-21 20:51:50 6 more...
STEAM_0:1:2485 76561197960270699 SALTY SAMMY 2017-02-21 20:51:50 6 more...
STEAM_0:1:2498 76561197960270725 dog and cat 2017-02-21 20:51:50 7 more...
STEAM_0:0:2499 76561197960270726 schmoooooky 2017-02-21 20:51:50 7 more...
STEAM_0:0:2508 76561197960270744 Abc 2017-02-21 20:51:51 4 more...